This demonstration page uses our WeatherBlox Daily Observations layout. Learn more.

Left ArrowRight Arrow

44.31136, -96.79839

Hourly Observations for May 17, 2020

Temp ( °F °C ) Dew Point ( °F °C ) Humidity (%) Winds ( mph kmh ) Pressure ( in mb ) Visibility ( mi km ) Precip ( " mm )
12:20 am 00:20 Cloudy with Light Rain 52 11 52 11 100 100 NNE 7 11 30.00 1016 10 16 0.00 0.00
12:56 am 00:56 Cloudy with Light Rain 51 10.6 51 10.6 100 100 NNE 9 15 30.05 1018 9 14 0.00 0.00
1:09 am 01:09 Cloudy with Light Rain 52 11 52 11 100 100 NNE 8 13 30.01 1016 10 16 0.00 0.00
1:40 am 01:40 Cloudy with Light Rain 52 11 52 11 100 100 NNE 6 9 30.01 1016 10 16 0.00 0.00
1:56 am 01:56 Cloudy with Light Rain 51 10.6 51 10.6 100 100 NNE 8 13 30.05 1018 10 16 0.00 0.00
2:56 am 02:56 Cloudy with Rain 51 10.6 51 10.6 100 100 N 8 13 30.04 1017 8 13 0.03 0.76
3:51 am 03:51 Cloudy with Light Rain 50 10 50 10 100 100 N 7 11 29.98 1015 10 16 0.02 0.51
3:56 am 03:56 Cloudy with Light Rain 50 10 50 10 100 100 N 8 13 30.02 1017 9 14 0.02 0.51
4:56 am 04:56 Cloudy with Light Rain 50 10 50 10 100 100 N 8 13 30.03 1017 8 13 0.04 1.02
5:56 am 05:56 Cloudy with Rain 50 10 50 10 100 100 N 10 17 30.03 1017 8 13 0.08 2.03
6:56 am 06:56 Cloudy with Light Rain 50 10 50 10 100 100 N 10 17 30.04 1017 10 16 0.01 0.25
7:22 am 07:22 Cloudy with Light Rain 50 10 50 10 100 100 NE 16 26 29.98 1015 10 16 0.00 0.00
7:52 am 07:52 Cloudy 50 10 50 10 100 100 NE 13 20 29.99 1016 10 16 0.00 0.00
7:56 am 07:56 Cloudy 50 10 50 10 100 100 NE 12 19 30.03 1017 10 16 0.00 0.00
8:56 am 08:56 Cloudy 51 10.6 50 10 96 96 ENE 17 28 30.03 1017 10 16 0.00 0.00
9:03 am 09:03 Cloudy 52 11 52 11 100 100 ENE 13 20 29.99 1016 10 16 0.00 0.00
9:15 am 09:15 Cloudy 52 11 52 11 100 100 NE 12 19 30.00 1016 10 16 0.00 0.00
9:56 am 09:56 Cloudy 52 11.1 51 10.6 97 97 NNE 15 24 30.05 1018 10 16 0.00 0.00
10:43 am 10:43 Cloudy 52 11 52 11 100 100 NNE 15 24 30.00 1016 10 16 0.00 0.00
10:56 am 10:56 Cloudy 52 11.1 51 10.6 97 97 N 16 26 30.05 1018 10 16 0.00 0.00
11:56 am 11:56 Cloudy 54 12.2 51 10.6 90 90 NNE 15 24 30.05 1018 10 16 0.00 0.00
12:13 pm 12:13 Cloudy 55 13 50 10 82 82 NE 16 26 29.99 1016 10 16 0.00 0.00
12:56 pm 12:56 Mostly Cloudy 56 13.3 50 10 81 81 NNE 21 33 30.04 1017 10 16 0.00 0.00
1:56 pm 13:56 Cloudy 55 12.8 49 9.4 80 80 NNE 21 33 30.05 1018 10 16 0.00 0.00
2:56 pm 14:56 Cloudy 57 13.9 49 9.4 74 74 NE 15 24 30.04 1017 10 16 0.00 0.00
3:54 pm 15:54 Cloudy 57 14 48 9 72 72 NE 18 30 30.00 1016 10 16 0.00 0.00
3:56 pm 15:56 Cloudy 57 13.9 48 8.9 72 72 NNE 18 30 30.05 1018 10 16 0.00 0.00
4:25 pm 16:25 Cloudy 57 14 48 9 72 72 NNE 16 26 30.00 1016 10 16 0.00 0.00
4:35 pm 16:35 Cloudy 57 14 48 9 72 72 NNE 15 24 30.00 1016 10 16 0.00 0.00
4:56 pm 16:56 Cloudy 57 13.9 49 9.4 74 74 NNE 15 24 30.05 1018 10 16 0.00 0.00
5:54 pm 17:54 Cloudy 55 13 48 9 77 77 NNE 15 24 30.01 1016 10 16 0.00 0.00
5:56 pm 17:56 Cloudy 56 13.3 50 10 81 81 NNE 16 26 30.07 1018 10 16 0.00 0.00
6:56 pm 18:56 Cloudy 55 12.8 50 10 83 83 NNE 13 20 30.08 1019 10 16 0.00 0.00
7:21 pm 19:21 Cloudy 54 12 48 9 82 82 ENE 14 22 30.04 1017 10 16 0.00 0.00
7:56 pm 19:56 Cloudy 52 11.1 50 10 93 93 NE 16 26 30.10 1019 10 16 0.00 0.00
8:56 pm 20:56 Cloudy 50 10 49 9.4 96 96 NE 14 22 30.11 1020 10 16 0.00 0.00
9:56 pm 21:56 Cloudy 50 10 49 9.4 96 96 NE 14 22 30.13 1020 10 16 0.00 0.00
10:56 pm 22:56 Mostly Cloudy 51 10.6 47 8.3 86 86 NE 10 17 30.13 1020 10 16 0.00 0.00
11:56 pm 23:56 Cloudy 52 11.1 46 7.8 80 80 NE 9 15 30.13 1020 10 16 0.00 0.00

Powered by AerisWeather